TimeCST,TemperatureF,Dew PointF,Humidity,Sea Level PressureIn,VisibilityMPH,Wind Direction,Wind SpeedMPH,Gust SpeedMPH,PrecipitationIn,Events,Conditions,WindDirDegrees,DateUTC
12:15 AM,42.3,35.4,77,30.28,10.0,NNW,15.0,-,N/A,,Overcast,330,2013-12-23 06:15:00
12:35 AM,41.9,35.2,77,30.28,10.0,NNW,9.2,-,N/A,,Overcast,340,2013-12-23 06:35:00
12:55 AM,40.6,34.2,78,30.28,10.0,North,9.2,-,N/A,,Overcast,10,2013-12-23 06:55:00
1:15 AM,39.9,33.4,78,30.29,10.0,North,6.9,-,N/A,,Overcast,360,2013-12-23 07:15:00
1:35 AM,39.6,33.4,79,30.29,10.0,North,8.1,-,N/A,,Overcast,360,2013-12-23 07:35:00
1:55 AM,39.0,32.5,78,30.30,10.0,North,12.7,19.6,N/A,,Overcast,350,2013-12-23 07:55:00
2:15 AM,38.1,32.0,79,30.30,10.0,North,9.2,16.1,N/A,,Overcast,350,2013-12-23 08:15:00
2:35 AM,38.3,32.0,78,30.30,10.0,North,13.8,-,N/A,,Overcast,350,2013-12-23 08:35:00
2:55 AM,37.9,32.0,79,30.30,10.0,North,10.4,16.1,N/A,,Overcast,350,2013-12-23 08:55:00
3:15 AM,37.9,32.0,79,30.30,10.0,North,13.8,17.3,N/A,,Overcast,360,2013-12-23 09:15:00
3:35 AM,37.8,31.8,79,30.31,10.0,North,12.7,17.3,N/A,,Overcast,360,2013-12-23 09:35:00
3:55 AM,37.9,31.8,79,30.31,10.0,North,10.4,17.3,N/A,,Overcast,350,2013-12-23 09:55:00
4:15 AM,38.3,32.0,78,30.31,10.0,North,11.5,17.3,N/A,,Overcast,360,2013-12-23 10:15:00
4:35 AM,38.3,32.0,78,30.31,10.0,North,11.5,-,N/A,,Overcast,360,2013-12-23 10:35:00
4:55 AM,38.3,32.0,78,30.31,10.0,North,9.2,-,N/A,,Overcast,360,2013-12-23 10:55:00
5:15 AM,38.3,32.0,78,30.32,10.0,North,10.4,-,N/A,,Overcast,360,2013-12-23 11:15:00
5:35 AM,37.9,31.8,79,30.33,10.0,North,12.7,17.3,N/A,,Overcast,360,2013-12-23 11:35:00
5:55 AM,37.9,32.0,79,30.33,10.0,North,9.2,-,N/A,,Overcast,360,2013-12-23 11:55:00
6:00 AM,37.4,32.0,81,30.33,10.0,North,11.5,-,N/A,,Overcast,360,2013-12-23 12:00:00
6:55 AM,37.4,32.0,81,30.36,10.0,North,11.5,-,N/A,,Overcast,360,2013-12-23 12:55:00
7:50 AM,37.4,32.0,81,30.39,10.0,North,11.5,16.1,N/A,,Overcast,10,2013-12-23 13:50:00
8:50 AM,39.2,32.0,75,30.42,10.0,NNE,11.5,-,N/A,,Mostly Cloudy,20,2013-12-23 14:50:00
9:58 AM,42.8,33.8,70,30.45,10.0,North,11.5,17.3,N/A,,Scattered Clouds,350,2013-12-23 15:58:00
11:50 AM,44.6,33.8,66,30.44,10.0,North,17.3,-,N/A,,Scattered Clouds,350,2013-12-23 17:50:00
12:45 PM,48.2,33.8,58,30.42,10.0,North,13.8,-,N/A,,Scattered Clouds,350,2013-12-23 18:45:00
1:50 PM,48.2,30.2,50,30.41,10.0,NNW,13.8,-,N/A,,Scattered Clouds,340,2013-12-23 19:50:00
2:50 PM,50.0,30.2,47,30.41,10.0,North,10.4,-,N/A,,Clear,350,2013-12-23 20:50:00
3:50 PM,50.0,28.4,43,30.41,10.0,North,11.5,-,N/A,,Clear,360,2013-12-23 21:50:00
4:50 PM,48.2,28.4,46,30.43,10.0,North,9.2,-,N/A,,Clear,350,2013-12-23 22:50:00
5:50 PM,42.8,30.2,61,30.46,10.0,North,4.6,-,N/A,,Clear,350,2013-12-23 23:50:00
6:50 PM,42.8,30.2,61,30.48,10.0,North,3.5,-,N/A,,Clear,360,2013-12-24 00:50:00
7:50 PM,39.2,30.2,70,30.49,10.0,North,4.6,-,N/A,,Clear,360,2013-12-24 01:50:00
8:50 PM,39.2,30.2,70,30.51,10.0,North,4.6,-,N/A,,Clear,350,2013-12-24 02:50:00
9:50 PM,37.4,30.2,75,30.52,10.0,North,3.5,-,N/A,,Clear,360,2013-12-24 03:50:00
10:15 PM,37.2,30.9,78,30.53,10.0,Calm,Calm,-,N/A,,Clear,0,2013-12-24 04:15:00
10:35 PM,36.9,30.9,79,30.53,10.0,Calm,Calm,-,N/A,,Clear,0,2013-12-24 04:35:00
10:55 PM,36.5,30.9,80,30.53,10.0,Calm,Calm,-,N/A,,Clear,0,2013-12-24 04:55:00
11:15 PM,36.3,31.1,81,30.53,10.0,NNE,3.5,-,N/A,,Clear,20,2013-12-24 05:15:00
11:35 PM,35.6,30.9,83,30.53,10.0,Calm,Calm,-,N/A,,Clear,0,2013-12-24 05:35:00
11:55 PM,35.8,31.1,83,30.52,10.0,NE,3.5,-,N/A,,Clear,40,2013-12-24 05:55:00